Location: *
(50.3440°N, 18.6237°E)
Time: 17:10:02
(UTC+00:00)

X-37B - Pass Details

Date: 30 November 2020
Orbit: 384 x 390 km, 45.0° (Epoch: 02 January)

Event Time Altitude Azimuth Distance (km) Brightness Sun altitude
Rises 16:47:49 0° 234° (SW) 2,260 5.7 -18.7°
Reaches altitude 10° 16:50:07 10° 220° (SW) 1,409 4.1 -19.0°
Enters shadow 16:52:35 23° 168° (SSE) 874 2.3 -19.4°
